PST,Max TemperatureF,Mean TemperatureF,Min TemperatureF,Max Dew PointF,MeanDew PointF,Min DewpointF,Max Humidity, Mean Humidity, Min Humidity, Max Sea Level PressureIn, Mean Sea Level PressureIn, Min Sea Level PressureIn, Max VisibilityMiles, Mean VisibilityMiles, Min VisibilityMiles, Max Wind SpeedMPH, Mean Wind SpeedMPH, Max Gust SpeedMPH,PrecipitationIn, CloudCover, Events, WindDirDegrees
2013-11-1,80,62,44,51,42,35,93,57,21,30.13,30.07,30.02,10,10,10,9,3,14,0.00,0,,317
2013-11-2,67,54,41,50,44,37,93,68,42,30.03,29.98,29.93,10,10,9,9,3,17,0.00,1,,324
2013-11-3,68,54,40,48,39,25,96,59,22,30.03,29.97,29.90,10,8,0,12,3,20,0.00,1,Fog,281
2013-11-4,70,54,37,42,33,24,82,50,18,30.06,29.98,29.92,10,10,10,12,4,17,0.00,0,,309
2013-11-5,71,56,40,46,34,28,82,52,22,30.23,30.15,30.07,10,10,10,16,3,71,0.00,0,,235
2013-11-6,80,61,41,35,32,24,70,42,13,30.24,30.20,30.15,10,10,10,10,3,20,0.00,0,,313
2013-11-7,72,58,43,49,39,33,89,57,25,30.17,30.12,30.08,10,10,10,8,3,28,0.00,0,,247
2013-11-8,75,58,41,51,43,37,89,61,33,30.09,30.02,29.95,10,10,10,9,3,21,0.00,0,,292
2013-11-9,71,57,43,52,47,39,93,68,42,30.07,30.02,29.98,10,10,9,16,4,23,0.00,3,,263
2013-11-10,63,54,45,50,47,44,93,77,60,30.14,30.10,30.05,10,10,8,13,3,21,0.00,3,,287
2013-11-11,69,57,45,51,47,42,93,66,39,30.17,30.12,30.09,10,8,0,9,3,23,0.00,3,Fog,113
2013-11-12,74,62,50,50,48,44,83,61,38,30.26,30.22,30.16,10,10,10,10,2,,0.00,0,,240
2013-11-13,74,60,45,52,47,42,96,66,35,30.25,30.16,30.12,10,8,0,9,2,16,0.00,2,Fog,183
2013-11-14,61,52,43,52,47,43,100,82,64,30.12,30.04,29.92,10,4,0,9,2,17,0.00,5,Fog,132
2013-11-15,62,54,45,49,46,41,93,72,51,29.92,29.83,29.75,10,9,6,14,3,37,0.00,4,,348
2013-11-16,61,53,45,48,45,43,93,72,51,29.96,29.88,29.82,10,10,6,12,3,18,0.00,3,,340
2013-11-17,62,54,46,49,46,43,93,77,60,30.12,30.03,29.96,10,10,8,9,2,23,0.00,4,,303
2013-11-18,60,53,46,48,45,43,93,73,53,30.16,30.13,30.10,10,10,8,14,3,22,0.00,4,,291
2013-11-19,63,55,47,55,49,44,100,82,64,30.13,30.06,29.99,10,9,5,9,2,22,0.22,6,Rain,260
2013-11-20,62,57,52,57,55,51,100,92,84,29.98,29.91,29.87,10,4,0,14,2,43,0.23,8,Fog-Rain,227
2013-11-21,63,52,41,52,46,25,100,63,26,29.96,29.92,29.89,10,8,1,10,2,21,T,5,,145
2013-11-22,63,51,38,36,32,24,79,52,25,30.03,29.97,29.93,10,10,10,8,4,24,0.00,0,,302
2013-11-23,64,52,40,50,40,30,86,64,42,30.12,30.04,29.98,10,10,10,10,3,15,0.00,0,,283
2013-11-24,66,53,39,42,38,34,79,57,34,30.26,30.19,30.12,10,10,10,9,3,29,0.00,0,,305
2013-11-25,71,56,40,42,39,36,83,56,28,30.32,30.26,30.23,10,10,10,9,3,24,0.00,0,,319
2013-11-26,72,57,42,43,39,35,76,52,27,30.25,30.14,30.03,10,10,10,9,2,23,0.00,0,,303
2013-11-27,68,56,43,45,42,23,84,61,37,30.01,29.91,29.76,10,10,4,13,3,21,0.00,0,Snow,291
2013-11-28,69,58,46,44,41,39,82,60,37,30.09,29.95,29.86,10,10,8,12,4,22,0.00,0,,303
2013-11-29,75,57,39,52,44,33,100,61,21,30.23,30.17,30.09,10,7,1,12,3,15,0.00,3,,277
2013-11-30,66,52,37,50,42,36,100,70,40,30.27,30.24,30.19,10,4,0,10,1,29,0.00,2,Fog,227